Location: Olda
(45.8833°N, 9.5500°E)
Time: 07:49:15
(UTC+00:00)

Cosmos 44 Rocket - Pass Details

Date: 03 March 2021
Orbit: 636 x 754 km, 65.1° (Epoch: 10 April)

Event Time Altitude Azimuth Distance (km) Brightness Sun altitude
Rises 18:20:39 0° 321° (NW) 3,211 7.4 -12.9°
Reaches altitude 10° 18:23:04 10° 318° (NW) 2,285 6.6 -13.3°
Maximum altitude 18:28:15 61° 239° (WSW) 850 4.0 -14.2°
Drops below altitude 10° 18:33:20 10° 160° (SSE) 2,251 5.7 -15.1°
Enters shadow 18:35:29 - 157° (SSE) 3,068 6.3 -15.4°
